Regional Weather Roundup
Issued by NWS Northern Indiana

Home | Current Version | Previous Version | Text Only | Print | Product List | Glossary On
Versions: 1 2 3 4 5 6 7 8 9 10 11 12 13 14 15 16 17 18 19 20 21 22 23 24 25 26 27 28 29 30 31 32 33 34 35 36 37 38 39 40 41 42 43 44 45 46 47 48 49 50
000
ASUS43 KIWX 031700
RWRIWX

KIWX WEATHER ROUNDUP
NATIONAL WEATHER SERVICE NORTHERN INDIANA
100 PM EDT SUN MAY 03 2015

NOTE: "FAIR" INDICATES FEW OR NO CLOUDS BELOW 12,000 FEET WITH NO
SIGNIFICANT WEATHER AND/OR OBSTRUCTIONS TO VISIBILITY.

* THESE STATIONS ARE NOT UNDER NWS QUALITY CONTROL. THEY ALSO MAY NOT
  REPORT WEATHER SUCH AS PRECIPITATION OR FOG.

INZ001>027-031800-
NORTHERN INDIANA

CITY           SKY/WX    TMP DP  RH WIND       PRES   REMARKS
GARY*          PTSUNNY   77 N/A N/A SW18      29.99
KNOX*          MOSUNNY   77   3   6 SW18      30.01F
SOUTH BEND     MOSUNNY   78  42  27 S22       30.02F
ELKHART*       MOSUNNY   75  37  25 SW8G18    30.03S
GOSHEN         SUNNY     75  45  34 S17       30.04S
WARSAW*        SUNNY     73  45  35 SW9G25    30.05S
ANGOLA*        SUNNY     75  68  78 SW12      30.05F
FORT WAYNE     MOSUNNY   74  47  38 SW17G24   30.08S
PERU/GRISSOM   SUNNY     74  51  44 SW15      30.06S

$$
INZ028>050-031800-
CENTRAL INDIANA

CITY           SKY/WX    TMP DP  RH WIND       PRES   REMARKS
LAFAYETTE      PTSUNNY   73  45  36 SW12G20   30.04F
MUNCIE*        MOSUNNY   72  47  40 SW14      30.10S
INDIANAPOLIS   PTSUNNY   74  49  41 SW10      30.07F

$$
MIZ043>046-050>051-056>058-064>065-071>073-077>080-031800-
SOUTHWEST LOWER MICHIGAN

CITY           SKY/WX    TMP DP  RH WIND       PRES   REMARKS
BATTLE CREEK   CLOUDY    75  43  31 SW15      30.03F
BENTON HARBOR  MOSUNNY   74  45  35 SW13G24   29.99F
COLDWATER*     SUNNY     74  41  31 SW15G24   30.04S
HILLSDALE*     SUNNY     75  41  29 SW10G21   30.06S
HOLLAND        MOSUNNY   76  44  32 SW20G26   30.00S
GRAND RAPIDS   PTSUNNY   77  43  29 SW14G23   30.00S
KALAMAZOO      PTSUNNY   74  42  31 SW14      30.02F
STURGIS*       MOSUNNY   73  46  38 S14G21    30.03F
THREE RIVERS*  CLOUDY    73  44  36 SW12G17   30.03F

$$
OHZ001>008-015>018-024>025-031800-
NORTHWEST OHIO

CITY           SKY/WX    TMP DP  RH WIND       PRES   REMARKS
DEFIANCE       SUNNY     76  43  30 SW14      30.07S
FINDLAY        SUNNY     76  43  30 SW16G25   30.08F
TOLEDO EXPRESS SUNNY     75  40  28 SW15G22   30.06F
TOLEDO METCALF SUNNY     77  42  28 SW20      30.07F
LIMA           MOSUNNY   73  46  38 SW9G23    30.10S

$$
AND FOR LAKE MICHIGAN COASTAL AND OPEN LAKE BUOY OBSERVATIONS

STATION/POSITION TEMP    WIND        PRES    VSBY  WAVE
                 AIR SEA DIR/SP/G                  HT/PER
                 (F)     (DEG/KT/KT) (MB)    (MI)  (FT/S)
CALUMET HARBOR    74     210/  9/ 12   N/A
MICHIGAN CITY     72     180/ 20/ 24   N/A
BURNS HARBOR      73     210/ 14/ 22 1016.3S
SAINT JOSEPH      67     180/ 10/ 13 1016.9F
4 MI NW BRIDGMAN  59 50  250/  6/  6   N/A           1
MICHIGAN CITY     63 50  230/ 10/ 14   N/A           1/ 2

$$
&&



USA.gov is the U.S. government's official web portal to all federal, state and local government web resources and services.